Current weather by "City, St" or "zip code"  
 

Current Conditions: Pittsfield Municipal Airport, MA

Overcast


63.0 F

Last Updated on May 21 2022, 3:54 am EDT
Humidity: 93%
Wind Speed: SE 3.5 mph
Barometer 29.93 in
Dewpoint: 61.0 F
Visibility: 10.00 mi
Precip: --
Heat Index: NA
Wind Chill: NA
Current conditions at:

Pittsfield Municipal Airport, MA (KPSF)

Lat: 42.42691 Lon: 73.28897

Local Radar Image active severe weather and emergency alerts image image weather storm and storm spotter reports image weather observation monitoring service image
Local
Radar
Active
Alerts
Storm Reports Obs
Monitoring

Sign-up For Email & Text Message Weather Alert Notification Services



Advertise Here

Observation History for Pittsfield Municipal Airport, MA


Time Wind
(mph)
Vis
(mi)
Weather Precip (in) Temperature (F) Relative
Humidity
Wind
Chill
(F)
Heat
Index
(F)
Pressure
Air Dwpt altimeter
(in)
sea level
(mb)
Rmks
3:54 am EDT SE 3.5 10.00 Overcast -- 63.0 61.0 93% NA NA 29.93 1011.2
2:54 am EDT N 0.0 10.00 Overcast -- 63.0 60.1 90% NA NA 29.94 1011.5
1:54 am EDT 4.6 10.00 Overcast -- 63.0 59.0 87% 64 NA 29.96 1011.9
12:54 am EDT SE 8.1 10.00 Overcast -- 63.0 59.0 87% 63 NA 29.97 1012.4
11:54 pm EDT N 0.0 10.00 Overcast -- 63.0 59.0 87% NA NA 29.97 1012.7
10:54 pm EDT 3.5 10.00 Overcast -- 64.0 59.0 84% NA NA 29.97 1012.7
9:54 pm EDT S 9.2 10.00 Overcast -- 64.0 57.9 81% NA NA 29.96 1012.9
8:54 pm EDT SE 5.8 10.00 Overcast -- 66.0 57.9 75% NA NA 29.96 1012.8
7:54 pm EDT S 13.8 G 19.6 10.00 A Few Clouds -- 67.0 57.0 71% NA NA 29.93 1012.0
5:54 pm EDT S 17.3 G 27.6 10.00 Mostly Cloudy -- 74.0 55.0 52% NA NA 29.93 1011.9
4:54 pm EDT S 13.8 G 23.0 10.00 Fair -- 75.0 55.0 50% NA NA 29.92 1011.4
3:54 pm EDT S 16.1 G 23.0 10.00 A Few Clouds -- 75.0 54.0 48% NA NA 29.91 1011.3
2:54 pm EDT S 12.7 G 23.0 10.00 Overcast -- 74.0 53.1 48% NA NA 29.94 1012.3
11:54 am EDT S 4.6 10.00 Fair -- 71.0 53.1 53% NA NA 29.95 1012.7
10:54 am EDT 6.9 10.00 A Few Clouds -- 67.0 53.1 61% NA NA 29.97 1013.2
9:54 am EDT NE 4.6 10.00 Fair -- 59.0 52.0 78% 59 NA 29.96 1013.3
8:54 am EDT N 4.6 9.00 Overcast -- 52.0 50.0 93% 51 NA 29.98 1014.3
7:54 am EDT NE 4.6 6.00 Fog/Mist -- 50.0 48.9 96% 48 NA 29.95 1013.1
5:54 am EDT N 0.0 0.50 Fog -- 44.0 44.1 100% NA NA 29.89 1011.4
4:54 am EDT W 3.5 0.25 Fog -- 45.0 45.0 100% NA NA 29.88 1011.0

Regional Weather Observation


Albany International Airport, NY (KALB)

Overcast
66.0 F

Bennington Morse State Airport, VT (KDDH)

Fair
62.0 F

Pittsfield Municipal Airport, MA (KPSF)

Overcast
63.0 F

Schenectady Airport, NY (KSCH)

Mostly Cloudy
68.0 F

Fulton County Airport, NY (KNY0)

Overcast
61.0 F

Westfield, Barnes Municipal Airport, MA (KBAF)

Fog/Mist
62.0 F

Advertise Here


Advertise Here